Time,TemperatureF,DewpointF,PressureIn,WindDirection,WindDirectionDegrees,WindSpeedMPH,WindSpeedGustMPH,Humidity,HourlyPrecipIn,Conditions,Clouds,dailyrainin,SoftwareType,DateUTC
2013-03-01 00:00:00,29.6,24.1,27.00,NNW,347,6.9,13.5,79,0.00,--,--,0.00,awk and wget,2013-03-01 05:00:00,
2013-03-01 00:05:00,29.5,24.3,27.00,NNW,342,6.8,12.9,80,0.00,--,--,0.00,awk and wget,2013-03-01 05:05:00,
2013-03-01 00:10:00,29.4,24.4,27.00,NNW,348,3.0,14.8,81,0.00,--,--,0.00,awk and wget,2013-03-01 05:10:00,
2013-03-01 00:15:00,29.3,24.5,27.00,NNW,341,4.0,14.8,81,0.00,--,--,0.00,awk and wget,2013-03-01 05:15:00,
2013-03-01 00:20:00,29.1,24.9,27.01,NNW,348,2.7,14.8,83,0.00,--,--,0.00,awk and wget,2013-03-01 05:20:00,
2013-03-01 00:25:00,29.2,25.0,27.01,NE,48,4.7,11.9,84,0.00,--,--,0.00,awk and wget,2013-03-01 05:25:00,
2013-03-01 00:30:00,29.5,24.6,27.01,NNW,342,10.7,20.2,81,0.00,--,--,0.00,awk and wget,2013-03-01 05:30:00,
2013-03-01 00:40:00,29.4,24.7,27.02,North,352,3.7,23.4,82,0.00,--,--,0.00,awk and wget,2013-03-01 05:40:00,
2013-03-01 00:50:00,29.6,24.2,27.02,NNW,348,2.9,18.0,79,0.00,--,--,0.00,awk and wget,2013-03-01 05:50:00,
2013-03-01 01:00:00,29.7,23.9,27.02,NNW,347,4.6,24.9,78,0.00,--,--,0.00,awk and wget,2013-03-01 06:00:00,
2013-03-01 01:05:00,29.8,23.7,27.02,NNW,336,8.7,24.9,77,0.00,--,--,0.00,awk and wget,2013-03-01 06:05:00,
2013-03-01 01:10:00,30.1,23.3,27.02,North,354,8.1,19.6,75,0.00,--,--,0.00,awk and wget,2013-03-01 06:10:00,
2013-03-01 01:15:00,29.9,23.6,27.02,NNW,337,6.0,19.6,77,0.00,--,--,0.00,awk and wget,2013-03-01 06:15:00,
2013-03-01 01:20:00,29.9,23.3,27.02,North,354,5.7,26.7,76,0.00,--,--,0.00,awk and wget,2013-03-01 06:20:00,
2013-03-01 01:25:00,30.0,23.3,27.02,ENE,61,4.3,26.7,75,0.00,--,--,0.00,awk and wget,2013-03-01 06:25:00,
2013-03-01 01:30:00,30.0,23.3,27.02,NNW,340,5.0,26.7,75,0.00,--,--,0.00,awk and wget,2013-03-01 06:30:00,
2013-03-01 01:35:00,29.9,23.5,27.02,NNW,339,7.8,17.7,76,0.00,--,--,0.00,awk and wget,2013-03-01 06:35:00,
2013-03-01 01:40:00,30.1,23.3,27.02,NNW,342,3.3,19.8,75,0.00,--,--,0.00,awk and wget,2013-03-01 06:40:00,
2013-03-01 01:45:00,29.5,24.0,27.02,NE,46,7.2,19.8,79,0.00,--,--,0.00,awk and wget,2013-03-01 06:45:00,
2013-03-01 01:50:00,28.8,24.8,27.02,NNW,339,4.0,19.8,84,0.00,--,--,0.00,awk and wget,2013-03-01 06:50:00,
2013-03-01 01:55:00,28.6,25.0,27.02,NE,43,5.4,14.2,86,0.00,--,--,0.00,awk and wget,2013-03-01 06:55:00,
2013-03-01 02:00:00,28.4,25.4,27.02,NNW,345,1.9,21.3,88,0.00,--,--,0.00,awk and wget,2013-03-01 07:00:00,
2013-03-01 02:10:00,29.8,23.8,27.02,North,349,9.0,30.8,77,0.00,--,--,0.00,awk and wget,2013-03-01 07:10:00,
2013-03-01 02:15:00,29.9,23.5,27.02,NNW,346,11.1,30.8,76,0.00,--,--,0.00,awk and wget,2013-03-01 07:15:00,
2013-03-01 02:20:00,29.5,23.7,27.01,NNE,30,3.4,23.8,78,0.00,--,--,0.00,awk and wget,2013-03-01 07:20:00,
2013-03-01 02:25:00,28.7,24.6,27.01,NE,43,4.3,23.8,84,0.00,--,--,0.00,awk and wget,2013-03-01 07:25:00,
2013-03-01 02:30:00,28.4,24.9,27.01,NNW,341,5.6,18.0,86,0.00,--,--,0.00,awk and wget,2013-03-01 07:30:00,
2013-03-01 02:35:00,29.0,24.2,27.01,NNE,20,4.6,17.3,81,0.00,--,--,0.00,awk and wget,2013-03-01 07:35:00,
2013-03-01 02:40:00,28.7,24.3,27.01,NE,54,3.7,17.3,83,0.00,--,--,0.00,awk and wget,2013-03-01 07:40:00,
2013-03-01 02:45:00,28.3,24.7,27.01,East,84,5.8,11.3,86,0.00,--,--,0.00,awk and wget,2013-03-01 07:45:00,
2013-03-01 02:50:00,28.2,25.0,27.01,East,80,4.9,9.2,87,0.00,--,--,0.00,awk and wget,2013-03-01 07:50:00,
2013-03-01 02:55:00,28.0,25.2,27.00,East,80,5.4,13.1,89,0.00,--,--,0.00,awk and wget,2013-03-01 07:55:00,
2013-03-01 03:00:00,28.0,25.3,27.00,NNW,347,3.6,13.7,89,0.00,--,--,0.00,awk and wget,2013-03-01 08:00:00,
2013-03-01 03:05:00,28.2,25.5,27.00,ENE,64,2.2,13.7,89,0.00,--,--,0.00,awk and wget,2013-03-01 08:05:00,
2013-03-01 03:10:00,28.3,25.2,27.00,NNE,23,3.3,13.7,87,0.00,--,--,0.00,awk and wget,2013-03-01 08:10:00,
2013-03-01 03:15:00,28.3,25.0,27.00,ENE,60,5.1,10.4,87,0.00,--,--,0.00,awk and wget,2013-03-01 08:15:00,
2013-03-01 03:20:00,28.2,25.0,27.00,ESE,107,4.0,8.8,87,0.00,--,--,0.00,awk and wget,2013-03-01 08:20:00,
2013-03-01 03:25:00,28.0,25.0,27.00,NNE,16,3.6,9.8,88,0.00,--,--,0.00,awk and wget,2013-03-01 08:25:00,
2013-03-01 03:30:00,28.0,25.1,27.00,ENE,68,2.9,9.8,88,0.00,--,--,0.00,awk and wget,2013-03-01 08:30:00,
2013-03-01 03:35:00,27.9,25.2,27.00,ENE,77,4.5,9.8,89,0.00,--,--,0.00,awk and wget,2013-03-01 08:35:00,
2013-03-01 03:40:00,27.9,25.2,27.00,NNW,337,4.0,9.6,89,0.00,--,--,0.00,awk and wget,2013-03-01 08:40:00,
2013-03-01 03:45:00,27.9,25.2,27.00,North,349,7.4,7.7,89,0.00,--,--,0.00,awk and wget,2013-03-01 08:45:00,
2013-03-01 03:50:00,28.0,25.4,27.00,NNE,16,9.9,9.9,89,0.00,--,--,0.00,awk and wget,2013-03-01 08:50:00,
2013-03-01 03:55:00,28.0,24.8,27.01,NNE,31,3.8,10.8,87,0.00,--,--,0.00,awk and wget,2013-03-01 08:55:00,
2013-03-01 04:00:00,28.2,24.2,27.00,North,10,11.5,12.5,84,0.00,--,--,0.00,awk and wget,2013-03-01 09:00:00,
2013-03-01 04:10:00,28.9,22.2,27.00,NNW,340,7.5,20.0,75,0.00,--,--,0.00,awk and wget,2013-03-01 09:10:00,
2013-03-01 04:15:00,28.8,22.2,27.00,North,354,8.5,20.0,75,0.00,--,--,0.00,awk and wget,2013-03-01 09:15:00,
2013-03-01 04:20:00,28.7,22.1,27.00,NNE,27,11.2,17.6,75,0.00,--,--,0.00,awk and wget,2013-03-01 09:20:00,
2013-03-01 04:30:00,28.8,21.5,27.00,North,2,9.3,21.2,73,0.00,--,--,0.00,awk and wget,2013-03-01 09:30:00,
2013-03-01 04:35:00,28.7,21.2,27.01,NNE,30,9.6,21.2,73,0.00,--,--,0.00,awk and wget,2013-03-01 09:35:00,
2013-03-01 04:40:00,28.8,21.1,27.01,NNW,339,8.5,21.2,72,0.00,--,--,0.00,awk and wget,2013-03-01 09:40:00,
2013-03-01 04:50:00,28.7,20.8,27.01,NNW,347,9.0,18.5,71,0.00,--,--,0.00,awk and wget,2013-03-01 09:50:00,
2013-03-01 04:55:00,28.7,20.7,27.01,North,6,6.6,18.5,71,0.00,--,--,0.00,awk and wget,2013-03-01 09:55:00,
2013-03-01 05:00:00,28.9,20.4,27.01,NNW,341,3.9,22.9,69,0.00,--,--,0.00,awk and wget,2013-03-01 10:00:00,
2013-03-01 05:05:00,28.8,20.5,27.01,ENE,68,3.6,22.9,70,0.00,--,--,0.00,awk and wget,2013-03-01 10:05:00,
2013-03-01 05:10:00,28.7,20.7,27.01,NNE,16,4.9,22.9,71,0.00,--,--,0.00,awk and wget,2013-03-01 10:10:00,
2013-03-01 05:15:00,28.6,20.6,27.01,ENE,58,4.4,11.0,71,0.00,--,--,0.00,awk and wget,2013-03-01 10:15:00,
2013-03-01 05:20:00,28.7,20.3,27.02,North,353,11.6,14.9,70,0.00,--,--,0.00,awk and wget,2013-03-01 10:20:00,
2013-03-01 05:30:00,28.6,19.9,27.02,North,6,2.9,18.7,69,0.00,--,--,0.00,awk and wget,2013-03-01 10:30:00,
2013-03-01 05:35:00,28.5,19.9,27.02,NNE,29,7.3,18.8,69,0.00,--,--,0.00,awk and wget,2013-03-01 10:35:00,
2013-03-01 05:40:00,28.3,20.2,27.02,North,8,11.5,25.3,71,0.00,--,--,0.00,awk and wget,2013-03-01 10:40:00,
2013-03-01 05:45:00,28.1,20.5,27.02,NNE,30,7.0,25.3,72,0.00,--,--,0.00,awk and wget,2013-03-01 10:45:00,
2013-03-01 05:50:00,28.0,20.6,27.02,NNW,345,9.1,25.3,73,0.00,--,--,0.00,awk and wget,2013-03-01 10:50:00,
2013-03-01 06:00:00,28.0,20.5,27.02,NNW,347,6.3,20.2,73,0.00,--,--,0.00,awk and wget,2013-03-01 11:00:00,
2013-03-01 06:05:00,27.9,20.6,27.02,NNW,341,6.1,24.2,73,0.00,--,--,0.00,awk and wget,2013-03-01 11:05:00,
2013-03-01 06:10:00,27.8,20.8,27.02,NNW,347,13.0,24.2,74,0.00,--,--,0.00,awk and wget,2013-03-01 11:10:00,
2013-03-01 06:15:00,27.8,20.7,27.02,NNW,336,5.7,24.2,74,0.00,--,--,0.00,awk and wget,2013-03-01 11:15:00,
2013-03-01 06:20:00,27.8,20.7,27.03,NE,47,3.3,21.2,74,0.00,--,--,0.00,awk and wget,2013-03-01 11:20:00,
2013-03-01 06:25:00,27.7,20.9,27.03,NNW,343,6.5,19.6,75,0.00,--,--,0.00,awk and wget,2013-03-01 11:25:00,
2013-03-01 06:30:00,27.6,21.0,27.03,NNW,341,3.3,17.2,75,0.00,--,--,0.00,awk and wget,2013-03-01 11:30:00,
2013-03-01 06:35:00,27.6,21.0,27.03,North,7,7.1,17.3,75,0.00,--,--,0.00,awk and wget,2013-03-01 11:35:00,
2013-03-01 06:40:00,27.5,21.3,27.03,NNW,336,8.3,17.3,77,0.00,--,--,0.00,awk and wget,2013-03-01 11:40:00,
2013-03-01 06:50:00,27.5,21.2,27.03,NNW,337,7.0,19.1,77,0.00,--,--,0.00,awk and wget,2013-03-01 11:50:00,
2013-03-01 06:55:00,27.6,20.9,27.03,North,9,7.3,21.7,75,0.00,--,--,0.00,awk and wget,2013-03-01 11:55:00,
2013-03-01 07:00:00,27.6,20.5,27.03,NNW,348,11.0,21.7,74,0.00,--,--,0.00,awk and wget,2013-03-01 12:00:00,
2013-03-01 07:10:00,27.6,20.0,27.04,NNW,338,7.5,18.7,72,0.00,--,--,0.00,awk and wget,2013-03-01 12:10:00,
2013-03-01 07:20:00,27.6,19.9,27.04,NNW,346,9.8,23.8,72,0.00,--,--,0.00,awk and wget,2013-03-01 12:20:00,
2013-03-01 07:25:00,27.6,19.9,27.05,North,356,11.2,23.8,72,0.00,--,--,0.00,awk and wget,2013-03-01 12:25:00,
2013-03-01 07:30:00,27.5,19.8,27.05,NNW,336,9.2,23.8,72,0.00,--,--,0.00,awk and wget,2013-03-01 12:30:00,
2013-03-01 07:35:00,27.5,20.0,27.05,North,354,11.2,23.2,72,0.00,--,--,0.00,awk and wget,2013-03-01 12:35:00,
2013-03-01 07:40:00,27.5,19.4,27.05,North,4,2.3,23.2,70,0.00,--,--,0.00,awk and wget,2013-03-01 12:40:00,
2013-03-01 07:50:00,27.6,19.2,27.06,NNW,344,9.4,22.1,70,0.00,--,--,0.00,awk and wget,2013-03-01 12:50:00,
2013-03-01 07:55:00,27.6,19.3,27.06,NNW,344,6.0,22.1,70,0.00,--,--,0.00,awk and wget,2013-03-01 12:55:00,
2013-03-01 08:00:00,27.6,19.4,27.06,NNW,346,4.5,18.8,70,0.00,--,--,0.00,awk and wget,2013-03-01 13:00:00,
2013-03-01 08:05:00,27.6,19.4,27.06,North,350,9.3,18.8,70,0.00,--,--,0.00,awk and wget,2013-03-01 13:05:00,
2013-03-01 08:10:00,27.6,19.2,27.07,NNW,345,8.4,13.2,70,0.00,--,--,0.00,awk and wget,2013-03-01 13:10:00,
2013-03-01 08:15:00,27.5,19.6,27.07,North,355,6.2,11.6,71,0.00,--,--,0.00,awk and wget,2013-03-01 13:15:00,
2013-03-01 08:20:00,27.5,19.4,27.06,North,351,10.7,12.2,71,0.00,--,--,0.00,awk and wget,2013-03-01 13:20:00,
2013-03-01 08:30:00,27.6,19.3,27.06,NNE,24,8.3,20.0,70,0.00,--,--,0.00,awk and wget,2013-03-01 13:30:00,
2013-03-01 08:35:00,27.6,19.2,27.06,North,355,8.7,20.0,70,0.00,--,--,0.00,awk and wget,2013-03-01 13:35:00,
2013-03-01 08:40:00,27.6,19.0,27.06,NNW,341,5.8,17.4,69,0.00,--,--,0.00,awk and wget,2013-03-01 13:40:00,
2013-03-01 08:45:00,27.7,19.0,27.06,North,351,6.8,20.5,69,0.00,--,--,0.00,awk and wget,2013-03-01 13:45:00,
2013-03-01 08:50:00,27.9,18.9,27.06,North,355,9.1,20.5,68,0.00,--,--,0.00,awk and wget,2013-03-01 13:50:00,
2013-03-01 09:00:00,28.0,18.9,27.05,ENE,68,4.7,19.5,68,0.00,--,--,0.00,awk and wget,2013-03-01 14:00:00,
2013-03-01 09:10:00,27.8,19.0,27.05,NE,38,13.5,19.5,69,0.00,--,--,0.00,awk and wget,2013-03-01 14:10:00,
2013-03-01 09:20:00,27.9,19.0,27.06,NNW,345,8.3,13.7,68,0.00,--,--,0.00,awk and wget,2013-03-01 14:20:00,
2013-03-01 09:30:00,27.7,18.7,27.06,North,351,10.4,24.4,68,0.00,--,--,0.00,awk and wget,2013-03-01 14:30:00,
2013-03-01 09:40:00,27.8,18.8,27.06,NNW,342,12.4,24.4,68,0.00,--,--,0.00,awk and wget,2013-03-01 14:40:00,
2013-03-01 09:50:00,28.2,19.1,27.06,NNE,13,2.2,17.5,68,0.00,--,--,0.00,awk and wget,2013-03-01 14:50:00,
2013-03-01 10:00:00,28.1,19.1,27.06,NNW,346,4.1,18.7,68,0.00,--,--,0.00,awk and wget,2013-03-01 15:00:00,
2013-03-01 10:05:00,28.0,18.9,27.06,NNW,340,9.1,18.7,68,0.00,--,--,0.00,awk and wget,2013-03-01 15:05:00,
2013-03-01 10:10:00,28.4,19.5,27.06,NE,45,4.2,18.7,68,0.00,--,--,0.00,awk and wget,2013-03-01 15:10:00,
2013-03-01 10:15:00,28.4,19.2,27.06,North,350,5.5,17.2,67,0.00,--,--,0.00,awk and wget,2013-03-01 15:15:00,
2013-03-01 10:20:00,28.3,18.9,27.06,NNW,340,11.9,15.3,67,0.00,--,--,0.00,awk and wget,2013-03-01 15:20:00,
2013-03-01 10:25:00,28.4,19.0,27.07,NNW,345,11.0,20.4,67,0.00,--,--,0.00,awk and wget,2013-03-01 15:25:00,
2013-03-01 10:30:00,28.6,19.4,27.07,NNW,340,3.3,20.4,68,0.00,--,--,0.00,awk and wget,2013-03-01 15:30:00,
2013-03-01 10:40:00,28.5,19.1,27.07,NNW,335,5.2,18.3,67,0.00,--,--,0.00,awk and wget,2013-03-01 15:40:00,
2013-03-01 10:45:00,28.8,19.5,27.07,North,0,2.9,18.3,67,0.00,--,--,0.00,awk and wget,2013-03-01 15:45:00,
2013-03-01 10:50:00,28.6,19.2,27.07,NNW,348,9.9,16.7,67,0.00,--,--,0.00,awk and wget,2013-03-01 15:50:00,
2013-03-01 11:00:00,28.8,19.7,27.07,NNW,348,3.5,14.6,68,0.00,--,--,0.00,awk and wget,2013-03-01 16:00:00,
2013-03-01 11:05:00,28.8,19.5,27.07,NNE,12,6.3,15.3,67,0.00,--,--,0.00,awk and wget,2013-03-01 16:05:00,
2013-03-01 11:10:00,28.6,19.3,27.07,NNW,339,12.8,15.3,67,0.00,--,--,0.00,awk and wget,2013-03-01 16:10:00,
2013-03-01 11:15:00,28.2,19.6,27.07,NNW,341,4.3,15.3,69,0.00,--,--,0.00,awk and wget,2013-03-01 16:15:00,
2013-03-01 11:20:00,28.2,19.7,27.08,NNW,347,6.8,13.1,69,0.00,--,--,0.00,awk and wget,2013-03-01 16:20:00,
2013-03-01 11:30:00,28.0,19.8,27.08,NNE,16,5.2,13.2,70,0.00,--,--,0.00,awk and wget,2013-03-01 16:30:00,
2013-03-01 11:40:00,28.1,20.4,27.08,North,350,7.4,13.2,72,0.00,--,--,0.00,awk and wget,2013-03-01 16:40:00,
2013-03-01 11:50:00,28.6,19.7,27.07,NNW,338,7.5,16.3,68,0.00,--,--,0.00,awk and wget,2013-03-01 16:50:00,
2013-03-01 12:00:00,29.1,20.2,27.07,NE,39,6.5,13.6,69,0.00,--,--,0.00,awk and wget,2013-03-01 17:00:00,
2013-03-01 12:10:00,28.9,20.1,27.07,NNW,336,4.8,11.4,69,0.00,--,--,0.00,awk and wget,2013-03-01 17:10:00,
2013-03-01 12:20:00,29.1,20.7,27.07,NNW,337,3.9,13.6,70,0.00,--,--,0.00,awk and wget,2013-03-01 17:20:00,
2013-03-01 12:30:00,28.7,19.9,27.07,NNW,343,13.4,15.6,69,0.00,--,--,0.00,awk and wget,2013-03-01 17:30:00,
2013-03-01 12:35:00,28.6,19.5,27.07,NNW,341,11.9,15.6,68,0.00,--,--,0.00,awk and wget,2013-03-01 17:35:00,
2013-03-01 12:40:00,28.7,19.8,27.07,North,354,6.4,16.7,68,0.00,--,--,0.00,awk and wget,2013-03-01 17:40:00,
2013-03-01 12:45:00,28.8,20.3,27.07,NNW,342,6.5,16.7,69,0.00,--,--,0.00,awk and wget,2013-03-01 17:45:00,
2013-03-01 12:50:00,29.1,20.7,27.07,NNW,334,1.1,16.7,70,0.00,--,--,0.00,awk and wget,2013-03-01 17:50:00,
2013-03-01 13:00:00,28.2,20.2,27.07,NNW,343,9.6,22.0,71,0.00,--,--,0.00,awk and wget,2013-03-01 18:00:00,
2013-03-01 13:05:00,28.1,20.1,27.07,North,349,12.1,22.0,71,0.00,--,--,0.00,awk and wget,2013-03-01 18:05:00,
2013-03-01 13:10:00,28.1,19.9,27.07,NNW,336,12.1,22.0,70,0.00,--,--,0.00,awk and wget,2013-03-01 18:10:00,
2013-03-01 13:15:00,28.4,19.4,27.07,NNE,15,7.3,19.9,68,0.00,--,--,0.00,awk and wget,2013-03-01 18:15:00,
2013-03-01 13:20:00,28.3,19.1,27.07,NE,43,11.9,19.9,68,0.00,--,--,0.00,awk and wget,2013-03-01 18:20:00,
2013-03-01 13:30:00,28.5,19.8,27.07,North,353,2.7,20.0,69,0.00,--,--,0.00,awk and wget,2013-03-01 18:30:00,
2013-03-01 13:35:00,28.7,19.7,27.06,North,8,11.4,20.0,68,0.00,--,--,0.00,awk and wget,2013-03-01 18:35:00,
2013-03-01 13:40:00,28.7,19.4,27.06,North,354,4.7,16.7,67,0.00,--,--,0.00,awk and wget,2013-03-01 18:40:00,
2013-03-01 13:50:00,28.5,19.6,27.06,NNW,336,10.4,18.0,68,0.00,--,--,0.00,awk and wget,2013-03-01 18:50:00,
2013-03-01 14:00:00,28.7,19.6,27.06,NNW,334,2.2,18.0,68,0.00,--,--,0.00,awk and wget,2013-03-01 19:00:00,
2013-03-01 14:05:00,28.6,19.5,27.05,NNW,335,8.3,14.1,68,0.00,--,--,0.00,awk and wget,2013-03-01 19:05:00,
2013-03-01 14:10:00,28.4,18.7,27.06,NNW,343,10.2,25.3,66,0.00,--,--,0.00,awk and wget,2013-03-01 19:10:00,
2013-03-01 14:20:00,28.0,19.1,27.06,NNW,347,8.5,25.3,68,0.00,--,--,0.00,awk and wget,2013-03-01 19:20:00,
2013-03-01 14:30:00,27.9,19.7,27.06,North,350,3.3,14.3,70,0.00,--,--,0.00,awk and wget,2013-03-01 19:30:00,
2013-03-01 14:40:00,27.8,20.4,27.06,North,7,8.0,16.9,73,0.00,--,--,0.00,awk and wget,2013-03-01 19:40:00,
2013-03-01 14:45:00,27.9,19.5,27.06,North,1,6.8,16.9,70,0.00,--,--,0.00,awk and wget,2013-03-01 19:45:00,
2013-03-01 14:50:00,27.7,19.2,27.06,North,353,11.5,17.8,69,0.00,--,--,0.00,awk and wget,2013-03-01 19:50:00,
2013-03-01 15:00:00,27.5,19.8,27.06,NNW,345,10.2,26.5,72,0.00,--,--,0.00,awk and wget,2013-03-01 20:00:00,
2013-03-01 15:10:00,27.5,19.8,27.06,NNW,334,9.1,22.8,72,0.00,--,--,0.00,awk and wget,2013-03-01 20:10:00,
2013-03-01 15:15:00,27.3,19.8,27.06,NNW,334,8.6,19.0,72,0.00,--,--,0.00,awk and wget,2013-03-01 20:15:00,
2013-03-01 15:20:00,27.3,19.6,27.06,NNW,338,10.2,14.3,72,0.00,--,--,0.00,awk and wget,2013-03-01 20:20:00,
2013-03-01 15:30:00,27.4,19.3,27.06,NNW,348,6.4,31.4,71,0.00,--,--,0.00,awk and wget,2013-03-01 20:30:00,
2013-03-01 15:40:00,27.7,18.3,27.06,NNW,344,3.8,31.4,67,0.00,--,--,0.00,awk and wget,2013-03-01 20:40:00,
2013-03-01 15:45:00,27.9,18.5,27.06,NNW,345,6.3,14.5,67,0.00,--,--,0.00,awk and wget,2013-03-01 20:45:00,
2013-03-01 15:50:00,27.6,18.0,27.06,NNW,348,6.9,17.4,66,0.00,--,--,0.00,awk and wget,2013-03-01 20:50:00,
2013-03-01 16:00:00,27.6,18.1,27.06,NNW,340,7.2,17.4,66,0.00,--,--,0.00,awk and wget,2013-03-01 21:00:00,
2013-03-01 16:10:00,27.6,17.9,27.06,North,351,3.8,13.0,66,0.00,--,--,0.00,awk and wget,2013-03-01 21:10:00,
2013-03-01 16:15:00,27.9,17.9,27.07,NNW,340,10.9,17.2,65,0.00,--,--,0.00,awk and wget,2013-03-01 21:15:00,
2013-03-01 16:20:00,27.6,17.7,27.07,NNW,339,9.1,17.2,65,0.00,--,--,0.00,awk and wget,2013-03-01 21:20:00,
2013-03-01 16:25:00,27.6,18.0,27.07,NNW,334,8.6,17.2,66,0.00,--,--,0.00,awk and wget,2013-03-01 21:25:00,
2013-03-01 16:30:00,27.5,17.9,27.07,North,350,6.6,17.8,66,0.00,--,--,0.00,awk and wget,2013-03-01 21:30:00,
2013-03-01 16:40:00,27.7,17.8,27.07,NNW,339,7.7,17.8,65,0.00,--,--,0.00,awk and wget,2013-03-01 21:40:00,
2013-03-01 16:45:00,27.6,17.6,27.07,North,359,7.2,15.9,65,0.00,--,--,0.00,awk and wget,2013-03-01 21:45:00,
2013-03-01 16:50:00,27.6,17.2,27.07,NNW,336,17.7,18.5,64,0.00,--,--,0.00,awk and wget,2013-03-01 21:50:00,
2013-03-01 17:00:00,27.4,17.3,27.07,NNW,340,14.7,20.7,65,0.00,--,--,0.00,awk and wget,2013-03-01 22:00:00,
2013-03-01 17:05:00,27.4,17.3,27.08,NNW,340,5.6,20.7,65,0.00,--,--,0.00,awk and wget,2013-03-01 22:05:00,
2013-03-01 17:10:00,27.4,17.4,27.07,NNE,30,8.4,20.2,65,0.00,--,--,0.00,awk and wget,2013-03-01 22:10:00,
2013-03-01 17:20:00,27.4,17.5,27.07,North,1,3.9,20.2,65,0.00,--,--,0.00,awk and wget,2013-03-01 22:20:00,
2013-03-01 17:30:00,27.3,17.6,27.07,NNW,335,6.9,20.0,66,0.00,--,--,0.00,awk and wget,2013-03-01 22:30:00,
2013-03-01 17:40:00,27.0,18.3,27.07,North,350,5.5,21.0,69,0.00,--,--,0.00,awk and wget,2013-03-01 22:40:00,
2013-03-01 17:45:00,26.9,18.5,27.07,North,354,3.4,21.0,70,0.00,--,--,0.00,awk and wget,2013-03-01 22:45:00,
2013-03-01 17:50:00,26.9,18.6,27.07,NE,36,8.5,17.7,70,0.00,--,--,0.00,awk and wget,2013-03-01 22:50:00,
2013-03-01 18:00:00,26.7,18.7,27.07,NNW,338,6.1,17.2,71,0.00,--,--,0.00,awk and wget,2013-03-01 23:00:00,
2013-03-01 18:10:00,26.7,18.7,27.07,NE,39,3.8,13.9,71,0.00,--,--,0.00,awk and wget,2013-03-01 23:10:00,
2013-03-01 18:20:00,26.6,19.0,27.08,NE,41,11.6,15.0,72,0.00,--,--,0.00,awk and wget,2013-03-01 23:20:00,
2013-03-01 18:30:00,26.6,19.2,27.08,NNE,14,5.5,15.0,73,0.00,--,--,0.00,awk and wget,2013-03-01 23:30:00,
2013-03-01 18:40:00,26.5,19.5,27.09,North,354,8.9,13.4,74,0.00,--,--,0.00,awk and wget,2013-03-01 23:40:00,
2013-03-01 18:45:00,26.5,19.6,27.09,North,350,7.5,15.3,74,0.00,--,--,0.00,awk and wget,2013-03-01 23:45:00,
2013-03-01 18:50:00,26.4,19.6,27.09,NNW,342,1.9,17.8,74,0.00,--,--,0.00,awk and wget,2013-03-01 23:50:00,
2013-03-01 19:00:00,26.4,19.5,27.09,NNW,342,7.3,17.8,74,0.00,--,--,0.00,awk and wget,2013-03-02 00:00:00,
2013-03-01 19:10:00,26.5,19.7,27.09,NNW,338,12.3,12.3,75,0.00,--,--,0.00,awk and wget,2013-03-02 00:10:00,
2013-03-01 19:15:00,26.6,19.0,27.09,NNW,344,19.6,21.1,72,0.00,--,--,0.00,awk and wget,2013-03-02 00:15:00,
2013-03-01 19:20:00,26.6,19.1,27.09,NNW,345,6.9,21.1,72,0.00,--,--,0.00,awk and wget,2013-03-02 00:20:00,
2013-03-01 19:30:00,26.5,19.2,27.09,NE,55,8.8,20.6,73,0.00,--,--,0.00,awk and wget,2013-03-02 00:30:00,
2013-03-01 19:40:00,26.5,19.0,27.08,NNE,22,4.3,17.3,72,0.00,--,--,0.00,awk and wget,2013-03-02 00:40:00,
2013-03-01 19:50:00,26.5,18.7,27.08,NNE,13,9.3,19.4,72,0.00,--,--,0.00,awk and wget,2013-03-02 00:50:00,
2013-03-01 19:55:00,26.4,18.7,27.08,East,83,2.5,20.6,72,0.00,--,--,0.00,awk and wget,2013-03-02 00:55:00,
2013-03-01 20:00:00,26.3,18.9,27.09,NNW,339,6.5,20.6,73,0.00,--,--,0.00,awk and wget,2013-03-02 01:00:00,
2013-03-01 20:10:00,26.4,18.8,27.10,NNW,335,6.5,23.2,72,0.00,--,--,0.00,awk and wget,2013-03-02 01:10:00,
2013-03-01 20:15:00,26.4,18.7,27.10,NNW,341,2.9,23.2,72,0.00,--,--,0.00,awk and wget,2013-03-02 01:15:00,
2013-03-01 20:20:00,26.4,18.9,27.10,NNW,340,5.8,16.8,72,0.00,--,--,0.00,awk and wget,2013-03-02 01:20:00,
2013-03-01 20:25:00,26.2,19.0,27.10,NNW,340,2.9,17.0,73,0.00,--,--,0.00,awk and wget,2013-03-02 01:25:00,
2013-03-01 20:30:00,26.1,19.1,27.10,NNW,346,4.7,17.0,74,0.00,--,--,0.00,awk and wget,2013-03-02 01:30:00,
2013-03-01 20:40:00,25.9,19.0,27.10,NNW,335,8.5,14.0,74,0.00,--,--,0.00,awk and wget,2013-03-02 01:40:00,
2013-03-01 20:45:00,25.8,18.9,27.10,NNW,339,4.9,15.8,74,0.00,--,--,0.00,awk and wget,2013-03-02 01:45:00,
2013-03-01 20:50:00,25.8,18.7,27.10,NNW,338,7.0,20.0,74,0.00,--,--,0.00,awk and wget,2013-03-02 01:50:00,
2013-03-01 21:00:00,25.7,18.3,27.10,NNW,341,3.9,20.0,72,0.00,--,--,0.00,awk and wget,2013-03-02 02:00:00,
2013-03-01 21:05:00,25.6,18.6,27.10,NNW,341,2.9,18.1,74,0.00,--,--,0.00,awk and wget,2013-03-02 02:05:00,
2013-03-01 21:10:00,25.5,18.8,27.10,ENE,67,5.8,14.6,75,0.00,--,--,0.00,awk and wget,2013-03-02 02:10:00,
2013-03-01 21:15:00,25.5,18.7,27.10,NNW,339,8.6,20.4,74,0.00,--,--,0.00,awk and wget,2013-03-02 02:15:00,
2013-03-01 21:20:00,25.5,17.9,27.10,NNW,336,3.8,20.4,72,0.00,--,--,0.00,awk and wget,2013-03-02 02:20:00,
2013-03-01 21:25:00,25.5,18.3,27.11,NE,38,3.3,20.4,74,0.00,--,--,0.00,awk and wget,2013-03-02 02:25:00,
2013-03-01 21:30:00,25.2,18.5,27.10,NE,49,4.9,18.0,75,0.00,--,--,0.00,awk and wget,2013-03-02 02:30:00,
2013-03-01 21:40:00,25.1,18.3,27.10,NNW,341,3.7,13.2,74,0.00,--,--,0.00,awk and wget,2013-03-02 02:40:00,
2013-03-01 21:45:00,25.0,18.3,27.11,NE,36,3.8,13.1,75,0.00,--,--,0.00,awk and wget,2013-03-02 02:45:00,
2013-03-01 21:50:00,24.9,18.4,27.11,NE,38,4.8,13.2,75,0.00,--,--,0.00,awk and wget,2013-03-02 02:50:00,
2013-03-01 22:00:00,24.7,18.1,27.11,NNW,346,4.2,13.2,75,0.00,--,--,0.00,awk and wget,2013-03-02 03:00:00,
2013-03-01 22:10:00,24.6,18.2,27.11,NE,54,2.7,15.2,76,0.00,--,--,0.00,awk and wget,2013-03-02 03:10:00,
2013-03-01 22:20:00,24.5,18.1,27.11,NE,46,1.3,10.9,76,0.00,--,--,0.00,awk and wget,2013-03-02 03:20:00,
2013-03-01 22:30:00,24.4,18.0,27.10,North,0,3.2,10.9,76,0.00,--,--,0.00,awk and wget,2013-03-02 03:30:00,
2013-03-01 22:35:00,24.4,17.7,27.10,NE,38,3.3,11.0,75,0.00,--,--,0.00,awk and wget,2013-03-02 03:35:00,
2013-03-01 22:40:00,24.4,17.6,27.10,NNW,340,5.1,12.8,74,0.00,--,--,0.00,awk and wget,2013-03-02 03:40:00,
2013-03-01 22:50:00,24.5,16.7,27.10,NNW,341,5.1,12.8,71,0.00,--,--,0.00,awk and wget,2013-03-02 03:50:00,
2013-03-01 23:00:00,24.5,16.5,27.10,NE,45,3.7,12.5,71,0.00,--,--,0.00,awk and wget,2013-03-02 04:00:00,
2013-03-01 23:10:00,24.3,16.5,27.10,NNW,339,4.9,12.5,71,0.00,--,--,0.00,awk and wget,2013-03-02 04:10:00,
2013-03-01 23:20:00,24.2,16.5,27.10,NNW,337,1.5,12.1,71,0.00,--,--,0.00,awk and wget,2013-03-02 04:20:00,
2013-03-01 23:30:00,24.1,16.2,27.10,NE,41,5.1,11.6,71,0.00,--,--,0.00,awk and wget,2013-03-02 04:30:00,
2013-03-01 23:35:00,24.0,16.3,27.10,NNE,23,3.9,11.5,71,0.00,--,--,0.00,awk and wget,2013-03-02 04:35:00,
2013-03-01 23:40:00,24.0,16.4,27.09,NNW,341,3.0,11.3,72,0.00,--,--,0.00,awk and wget,2013-03-02 04:40:00,
2013-03-01 23:45:00,24.0,16.3,27.10,NNW,341,4.0,15.5,71,0.00,--,--,0.00,awk and wget,2013-03-02 04:45:00,
2013-03-01 23:50:00,23.9,16.3,27.10,NNW,345,6.5,15.5,72,0.00,--,--,0.00,awk and wget,2013-03-02 04:50:00,